This is the latest recevied weather packets stored in our database for station/object IZ1UQG-1. If no packets are shown the sender has not sent any weather packets the latest 10 day(s).
| Time | Temp. | Humidity | Pressure | Rain* | Wind** | Luminosity | Snow |
|---|---|---|---|---|---|---|---|
| 1777861438 | 16.11° C | 52% | 1017 hPa | 150.37 mm | - | - | - |
| 1777861138 | 16.11° C | 52% | 1016.9 hPa | 145.8 mm | - | - | - |
| 1777860838 | 16.67° C | 52% | 1016.8 hPa | 152.91 mm | - | - | - |
| 1777860539 | 16.67° C | 52% | 1016.7 hPa | 157.23 mm | - | - | - |
| 1777859938 | 16.67° C | 51% | 1017 hPa | 88.9 mm | - | - | - |
| 1777859638 | 16.67° C | 51% | 1017 hPa | 155.19 mm | - | - | - |
| 1777859338 | 16.67° C | 51% | 1017 hPa | 128.78 mm | - | - | - |
| 1777859038 | 16.67° C | 52% | 1016.8 hPa | 127.51 mm | - | - | - |
| 1777858738 | 16.67° C | 52% | 1016.9 hPa | 99.06 mm | - | - | - |
| 1777858438 | 16.67° C | 51% | 1016.8 hPa | 138.43 mm | - | - | - |
| 1777858138 | 16.67° C | 51% | 1016.9 hPa | 116.33 mm | - | - | - |
| 1777857838 | 17.22° C | 51% | 1016.9 hPa | 115.32 mm | - | - | - |
| 1777857538 | 17.22° C | 51% | 1016.7 hPa | 76.96 mm | - | - | - |
| 1777857238 | 17.22° C | 51% | 1016.7 hPa | 121.41 mm | - | - | - |
| 1777856938 | 17.22° C | 50% | 1017 hPa | 106.93 mm | - | - | - |
| 1777856638 | 17.22° C | 50% | 1016.9 hPa | 116.33 mm | - | - | - |
| 1777856338 | 17.22° C | 50% | 1017.1 hPa | 60.71 mm | - | - | - |
| 1777856038 | 17.22° C | 50% | 1016.9 hPa | 111 mm | - | - | - |
| 1777855738 | 17.78° C | 50% | 1016.9 hPa | 78.49 mm | - | - | - |
| 1777855438 | 17.78° C | 50% | 1017 hPa | 87.63 mm | - | - | - |
| 1777855138 | 17.78° C | 50% | 1016.9 hPa | 61.98 mm | - | - | - |
| 1777854838 | 17.78° C | 50% | 1017 hPa | 86.11 mm | - | - | - |
| 1777854538 | 17.78° C | 49% | 1016.9 hPa | 49.53 mm | - | - | - |
| 1777854238 | 17.78° C | 49% | 1017 hPa | 44.7 mm | - | - | - |
| 1777853938 | 17.78° C | 49% | 1017.1 hPa | 43.69 mm | - | - | - |
* Rain latest hour (hover to see other rain measurements)
** Current wind speed in m/s (hover to see current wind gust speed)